NEW HOGAN LAKE (NHG)

Elevation: 554' · CALAVERAS R basin · Operator: US Army Corps of Engineers

Provisional data, subject to change.
Query executed Saturday at 8:17:31   clock

Select a sensor type for a plot of data.
Note: Reservoir Flows are daily averages.

Earlier

Date RES ELE    STORAGE    RES CHG    TOC STO    ABV TOC    OUTFLOW    INFLOW    FNF    PPT INC    TEMP MN    TEMP MX   
 FEET   AF   AF   AF   AF   CFS   CFS   CFS   INCHES   DEG F   DEG F  
10/23/2014 612.43 41401 -120 254887 -213486 58 5 -- 0.00 12 25
10/24/2014 612.35 41295 -106 252182 -210887 48 3 3 0.00 10 29
10/25/2014 612.35 41295 0 249477 -208182 24 28 28 0.40 12 20
10/26/2014 612.32 41255 -40 246772 -205517 9 -4 -4 0.01 10 20
10/27/2014 612.30 41229 -26 244067 -202838 10 2 2 0.00 6 19
10/28/2014 612.27 41189 -40 241362 -200173 10 -3 -3 0.00 8 24
10/29/2014 612.26 41176 -13 238657 -197481 8 10 10 0.00 10 27
10/30/2014 612.23 41136 -40 235952 -194816 9 -3 -- 0.00 12 27
10/31/2014 612.25 41163 27 233248 -192085 11 29 29 0.36 12 20
11/01/2014 612.23 41136 -27 230543 -189407 11 3 3 0.01 9 17
11/02/2014 612.20 41097 -39 227838 -186741 12 -2 -2 0.00 6 17
11/03/2014 612.20 41097 0 225133 -184036 12 17 17 0.00 6 19
11/04/2014 612.15 41031 -66 222428 -181397 10 -18 -18 0.01 7 20
11/05/2014 612.14 41017 -14 219723 -178706 7 7 7 0.00 8 23
11/06/2014 612.11 40978 -39 217018 -176040 8 -4 -4 0.00 9 26
11/07/2014 612.11 40978 0 214313 -173335 9 16 16 0.00 9 24
11/08/2014 612.09 40951 -27 211608 -170657 9 2 2 0.01 10 26
11/09/2014 612.06 40912 -39 208903 -167991 9 -4 -4 0.00 10 26
11/10/2014 612.04 40886 -26 206198 -165312 11 4 4 0.00 9 24
11/11/2014 612.01 40846 -40 203493 -162647 12 -5 -- 0.00 9 16
11/12/2014 611.98 40807 -39 200789 -159982 11 -4 -- 0.00 9 19
11/13/2014 612.01 40846 39 198084 -157238 11 33 33 0.33 12 17
11/14/2014 611.99 40820 -26 195379 -154559 10 1 1 0.02 10 18
11/15/2014 611.96 40780 -40 192674 -151894 10 -6 -6 0.00 7 17
11/16/2014 611.93 40741 -39 189969 -149228 10 -7 -7 0.00 4 14
11/17/2014 611.93 40741 0 187264 -146523 10 14 14 0.01 4 17
11/18/2014 611.90 40701 -40 184559 -143858 10 -5 -5 0.00 4 19
11/19/2014 611.86 40649 -52 181854 -141205 10 -10 -11 0.00 10 19
11/20/2014 611.87 40662 13 179149 -138487 10 19 19 0.01 8 13
11/21/2014 -- -- -- -- -- -- -- -- -- -- --
11/22/2014 -- -- -- -- -- -- -- -- -- -- --

Later | Latest

Warning! This data is preliminary and subject to revision.

Show NHG Map | Plot NHG Data | 1 Month NHG Data | Real-Time NHG Data | NHG Info